TimeEEST,TemperatureF,Dew PointF,Humidity,Sea Level PressureIn,VisibilityMPH,Wind Direction,Wind SpeedMPH,Gust SpeedMPH,PrecipitationIn,Events,Conditions,WindDirDegrees,DateUTC
12:20 AM,60.8,59.0,94,29.83,3.1,NW,4.6,-,N/A,Rain,Light Rain Showers,320,2013-05-14 21:20:00
12:50 AM,60.8,60.8,100,29.83,3.7,NW,5.8,-,N/A,Rain,Light Rain Showers,310,2013-05-14 21:50:00
1:01 AM,60.8,60.8,100,29.83,2.8,NW,6.9,-,N/A,Rain-Thunderstorm,Thunderstorms and Rain,320,2013-05-14 22:01:00
1:20 AM,60.8,59.0,94,29.80,3.7,NNW,11.5,-,N/A,Rain,Light Rain Showers,330,2013-05-14 22:20:00
1:50 AM,60.8,59.0,94,29.80,6.2,NNW,10.4,-,N/A,Rain,Light Rain Showers,330,2013-05-14 22:50:00
2:20 AM,60.8,59.0,94,29.80,6.2,NNW,8.1,-,N/A,Rain,Light Rain Showers,340,2013-05-14 23:20:00
2:50 AM,59.0,57.2,94,29.80,6.2,NNW,12.7,-,N/A,Rain,Light Rain Showers,340,2013-05-14 23:50:00
3:00 AM,60,58,90,29.82,6,NNW,12.7,,,Rain,Light Rain Showers,340,2013-05-15 00:00:00
3:20 AM,60.8,57.2,88,29.80,4.3,North,12.7,-,N/A,Rain,Light Rain Showers,350,2013-05-15 00:20:00
3:50 AM,59.0,57.2,94,29.83,4.3,NNE,9.2,-,N/A,Rain,Light Rain Showers,30,2013-05-15 00:50:00
4:20 AM,59.0,59.0,100,29.83,6.2,NNE,5.8,-,N/A,Rain,Light Rain Showers,20,2013-05-15 01:20:00
4:50 AM,59.0,57.2,94,29.80,6.2,NNW,2.3,-,N/A,,Mostly Cloudy,340,2013-05-15 01:50:00
5:20 AM,60.8,59.0,94,29.80,6.2,West,4.6,-,N/A,,Mostly Cloudy,280,2013-05-15 02:20:00
5:50 AM,60.8,59.0,94,29.83,6.2,WNW,3.5,-,N/A,,Mostly Cloudy,290,2013-05-15 02:50:00
6:20 AM,60.8,59.0,94,29.83,6.2,NW,3.5,-,N/A,,Mostly Cloudy,310,2013-05-15 03:20:00
6:50 AM,60.8,57.2,88,29.83,6.2,WNW,4.6,-,N/A,,Mostly Cloudy,300,2013-05-15 03:50:00
7:20 AM,60.8,55.4,82,29.83,6.2,WNW,6.9,-,N/A,,Mostly Cloudy,300,2013-05-15 04:20:00
7:50 AM,62.6,53.6,72,29.86,6.2,NW,5.8,-,N/A,,Mostly Cloudy,310,2013-05-15 04:50:00
8:20 AM,62.6,50.0,63,29.86,6.2,North,6.9,-,N/A,,Mostly Cloudy,350,2013-05-15 05:20:00
8:50 AM,62.6,48.2,59,29.86,6.2,NNW,5.8,-,N/A,,Mostly Cloudy,340,2013-05-15 05:50:00
9:00 AM,62,48,49,29.88,6,NNW,5.8,,,,Partly Cloudy,340,2013-05-15 06:00:00
9:20 AM,62.6,50.0,63,29.89,6.2,WSW,3.5,-,N/A,,Mostly Cloudy,250,2013-05-15 06:20:00
9:50 AM,64.4,48.2,56,29.89,6.2,Variable,2.3,-,N/A,,Mostly Cloudy,0,2013-05-15 06:50:00
10:20 AM,64.4,48.2,56,29.89,6.2,NNW,3.5,-,N/A,,Mostly Cloudy,330,2013-05-15 07:20:00
10:50 AM,64.4,48.2,56,29.89,6.2,WSW,3.5,-,N/A,,Mostly Cloudy,250,2013-05-15 07:50:00
11:20 AM,64.4,57.2,77,29.92,6.2,SW,8.1,-,N/A,,Mostly Cloudy,220,2013-05-15 08:20:00
11:50 AM,64.4,57.2,77,29.92,6.2,South,8.1,-,N/A,,Mostly Cloudy,190,2013-05-15 08:50:00
12:20 PM,64.4,55.4,73,29.92,6.2,SSW,8.1,-,N/A,,Scattered Clouds,200,2013-05-15 09:20:00
12:50 PM,64.4,57.2,77,29.92,6.2,South,9.2,-,N/A,,Scattered Clouds,190,2013-05-15 09:50:00
1:20 PM,64.4,57.2,77,29.92,6.2,SSW,10.4,-,N/A,,Scattered Clouds,200,2013-05-15 10:20:00
1:50 PM,66.2,57.2,73,29.89,6.2,SSW,10.4,-,N/A,,Scattered Clouds,200,2013-05-15 10:50:00
2:20 PM,66.2,59.0,78,29.89,6.2,SSW,10.4,-,N/A,,Scattered Clouds,200,2013-05-15 11:20:00
2:50 PM,64.4,57.2,77,29.89,6.2,SSW,10.4,-,N/A,,Partly Cloudy,200,2013-05-15 11:50:00
3:00 PM,65,56,66,29.90,6,SSW,10.4,,,,Scattered Clouds,200,2013-05-15 12:00:00
3:20 PM,66.2,57.2,73,29.89,6.2,SSW,9.2,-,N/A,,Partly Cloudy,200,2013-05-15 12:20:00
3:50 PM,66.2,55.4,68,29.89,6.2,SSW,9.2,-,N/A,,Partly Cloudy,210,2013-05-15 12:50:00
4:20 PM,66.2,57.2,73,29.89,6.2,SSW,9.2,-,N/A,,Partly Cloudy,210,2013-05-15 13:20:00
4:50 PM,66.2,55.4,68,29.89,6.2,SW,9.2,-,N/A,,Partly Cloudy,230,2013-05-15 13:50:00
5:20 PM,66.2,50.0,56,29.86,6.2,SW,6.9,-,N/A,,Partly Cloudy,220,2013-05-15 14:20:00
5:50 PM,66.2,50.0,56,29.86,6.2,SW,4.6,-,N/A,,Partly Cloudy,230,2013-05-15 14:50:00
6:20 PM,66.2,50.0,56,29.86,6.2,SSW,4.6,-,N/A,,Partly Cloudy,210,2013-05-15 15:20:00
6:50 PM,66.2,51.8,60,29.86,6.2,SW,3.5,-,N/A,,Partly Cloudy,230,2013-05-15 15:50:00
7:20 PM,66.2,50.0,56,29.86,-9999.0,Variable,2.3,-,N/A,,Clear,0,2013-05-15 16:20:00
7:50 PM,64.4,48.2,56,29.86,-9999.0,SSW,3.5,-,N/A,,Clear,210,2013-05-15 16:50:00
8:20 PM,62.6,48.2,59,29.86,-9999.0,South,3.5,-,N/A,,Clear,190,2013-05-15 17:20:00
8:50 PM,64.4,48.2,56,29.86,-9999.0,SE,3.5,-,N/A,,Clear,140,2013-05-15 17:50:00
9:00 PM,64,48,45,29.88,6,SE,3.5,,,,,140,2013-05-15 18:00:00
9:20 PM,64.4,51.8,64,29.89,-9999.0,Variable,3.5,-,N/A,,Clear,0,2013-05-15 18:20:00
9:50 PM,64.4,51.8,64,29.89,-9999.0,ESE,5.8,-,N/A,,Clear,120,2013-05-15 18:50:00
10:20 PM,64.4,50.0,59,29.89,-9999.0,Variable,3.5,-,N/A,,Clear,0,2013-05-15 19:20:00
10:50 PM,62.6,48.2,59,29.89,-9999.0,Variable,2.3,-,N/A,,Clear,0,2013-05-15 19:50:00
11:20 PM,62.6,48.2,59,29.89,-9999.0,East,3.5,-,N/A,,Clear,90,2013-05-15 20:20:00
11:50 PM,62.6,50.0,63,29.89,-9999.0,East,3.5,-,N/A,,Clear,90,2013-05-15 20:50:00